User: anonymous   Login
Location: Rehoboth Beach
(38.7438°N, 75.1341°W)
Time: 16:56:05
(UTC-04:00)
Language:

Cosmos 1452 Rocket - Orbit

View from above orbital plane
View from above orbital plane
View from above satellite
View from above satellite

Ground track
Ground track

The orbit data is extracted from the following two-line orbital elements,

1 13992U 83031B   15241.17598223  .00000090  00000-0  40032-4 0  9991
2 13992 074.0536 133.9053 0006144 276.7326 194.5316 14.35964332694359
Epoch (UTC): 29 August 2015 04:13:24
Eccentricity: 0.0006144
inclination: 74.0536°
perigee height: 767 km
apogee height: 776 km
right ascension of ascending node: 133.9053°
argument of perigee: 276.7326°
revolutions per day: 14.35964332
mean anomaly at epoch: 194.5316°
orbit number at epoch: 69435

The dashed part of the orbit path shows where the satellite is in the earth's shadow,  

DLR